This is the latest recevied weather packets stored in our database for station/object YO8SDE-8. If no packets are shown the sender has not sent any weather packets the latest 10 day(s).
| Time | Temp. | Humidity | Pressure | Rain* | Wind** | Luminosity | Snow |
|---|---|---|---|---|---|---|---|
| 1777545667 | 15° C | 29% | 1015.2 hPa | 0 mm | - | - | - |
| 1777545367 | 15.56° C | 28% | 1015.3 hPa | 0 mm | - | - | - |
| 1777545067 | 16.11° C | 29% | 1015.4 hPa | 0 mm | - | - | - |
| 1777544767 | 15° C | 31% | 1015.3 hPa | 0 mm | - | - | - |
| 1777544467 | 13.33° C | 33% | 1015.4 hPa | 0 mm | - | - | - |
| 1777544167 | 12.78° C | 33% | 1015.4 hPa | 0 mm | - | - | - |
| 1777543867 | 12.78° C | 33% | 1015.4 hPa | 0 mm | - | - | - |
| 1777543567 | 12.22° C | 33% | 1015.5 hPa | 0 mm | - | - | - |
| 1777543267 | 12.22° C | 32% | 1015.4 hPa | 0 mm | - | - | - |
| 1777542967 | 13.33° C | 31% | 1015.4 hPa | 0 mm | - | - | - |
| 1777542667 | 14.44° C | 30% | 1015.4 hPa | 0 mm | - | - | - |
| 1777542367 | 15° C | 32% | 1015.4 hPa | 0 mm | - | - | - |
| 1777542067 | 12.78° C | 33% | 1015.4 hPa | 0 mm | - | - | - |
| 1777541767 | 12.22° C | 32% | 1015.4 hPa | 0 mm | - | - | - |
| 1777541467 | 12.78° C | 32% | 1015.5 hPa | 0 mm | - | - | - |
| 1777541167 | 13.33° C | 31% | 1015.5 hPa | 0 mm | - | - | - |
| 1777540867 | 14.44° C | 31% | 1015.7 hPa | 0 mm | - | - | - |
| 1777540567 | 15° C | 31% | 1015.5 hPa | 0 mm | - | - | - |
| 1777540267 | 16.11° C | 30% | 1015.7 hPa | 0 mm | - | - | - |
| 1777539967 | 15° C | 31% | 1015.6 hPa | 0 mm | - | - | - |
| 1777539667 | 15° C | 32% | 1015.6 hPa | 0 mm | - | - | - |
| 1777539367 | 14.44° C | 31% | 1015.5 hPa | 0 mm | - | - | - |
| 1777539067 | 16.11° C | 31% | 1015.6 hPa | 0 mm | - | - | - |
| 1777538767 | 13.89° C | 32% | 1015.6 hPa | 0 mm | - | - | - |
| 1777538467 | 15° C | 31% | 1015.6 hPa | 0 mm | - | - | - |
* Rain latest hour (hover to see other rain measurements)
** Current wind speed in m/s (hover to see current wind gust speed)